星链-4484 (STARLINK-4484 )

导读 | 星芒AI

STARLINK-4484 是 SpaceX Starlink 项目中的一颗低轨通信卫星,属于该星座的多个发射批次之一。该卫星旨在为全球用户提供高速互联网服务,尤其关注网络覆盖不足的地区。它运行在约 550 公里的轨道高度,配备先进通信设备,支持星间链路以减少地面基站依赖。STARLINK-4484 的部署有助于提升 Starlink 网络的稳定性和覆盖范围,是 SpaceX 构建全球宽带网络的重要组成部分。

基本信息
目录编号:
53417
目录名称:
STARLINK-4484
国际标识:
2022-097AF
轨道中心:
EARTH
卫星名称:
星链-4484
卫星全名:
星链-4484 (STARLINK-4484 )
卫星状态:
在轨 (已飞行1183 天)
发射日期:
2022-08-10 UTC
国别 :
美国 (US)
星等 :
--
轨道信息
数据来源 国际轨道数据
星历时间: 2025-11-04T15:04:56+0800
19小时前
查看轨道信息
半长轴: 6917.865km
偏心率: 0.0001482
轨道倾角: 53.216°
近地点辐角 88.228°
升交点赤经 317.040°
平近点角 271.889°
近地点: 538.704km
远地点: 540.756km
周期: 95.437分钟
每日圈数: 15.088453
详细信息
固有亮度:
5
最大亮度:
2.5
卫星平台:
Starlink v1.5
覆盖范围:
全球
运营商:
太空探索技术公司
运营商所在国:
美国
制造商(研发单位):
太空探索技术公司
制造商所在国:
美国
使用方式:
暂无
卫星简介
星链(Starlink)计划是由太空探索技术公司(SpaceX)提出的一个巨型低轨卫星互联网星座项目,计划在2019年至2024年间在太空搭建由约1.2万颗卫星组成的“星链”网络,其中1584颗将部署在地球上空550千米处的近地轨道,并从2020年开始工作。该卫星仍在工作。
2D轨道图
3D轨道图
轨道高度分析图
轨道倾角分析图
轨道综合分析图
查看轨道综合分析图